Location: Unspecified
(0.0000°N, 0.0000°E)
Time: 20:57:27
(UTC+00:00)

SR - Pass Details

Date: 24 June 2025
Orbit: 572 x 853 km, 66.7° (Epoch: 13 July)

Event Time Altitude Azimuth Distance (km) Brightness Sun altitude
Rises 02:20:15 0° 329° (NNW) 2,867 - -49.2°
Reaches altitude 10° 02:22:37 10° 322° (NW) 1,932 - -48.7°
Maximum altitude 02:26:42 43° 251° (WSW) 821 - -47.9°
Drops below altitude 10° 02:30:41 10° 178° (S) 1,876 - -47.1°
Sets 02:32:58 0° 171° (S) 2,772 - -46.6°
